St. Paul, MN

4:50 AM CDT on June 28, 2017 (GMT -0500)
Saint Paul Downtown-Holman

Weather History for KSTP - March, 2014

Change the Weather History Date:

Tuesday, March 11, 2014

  Actual Average Record
Temperature  
Mean Temperature 38 °F -  
Max Temperature 42 °F 33 °F 66 °F (2012)
Min Temperature 30 °F 17 °F 0 °F (2009)
Degree Days  
Heating Degree Days 28    
Moisture  
Dew Point 25 °F    
Average Humidity 60    
Maximum Humidity 76    
Minimum Humidity 41    
Precipitation  
Precipitation 0.00 in - - ()
Sea Level Pressure  
Sea Level Pressure 29.87 in    
Wind  
Wind Speed 8 mph (NNW)    
Max Wind Speed 20 mph    
Max Gust Speed 29 mph    
Visibility 10 miles    
Events      
Averages and records for this station are not official NWS values.
T = Trace of Precipitation, MM = Missing Value Source: NWS Daily Summary

Daily Weather History Graph

Daily Weather History Graph

Search for Another Location

Airport or City:

Trip Planner

Search our weather history database for the weather conditions in past years. The results will help you decide how hot, cold, wet, or windy it might be!

Date:

Astronomy

Mar. 11, 2014 Rise Set
Actual Time 7:32 AM CDT 7:13 PM CDT
Civil Twilight 7:02 AM CDT 7:42 PM CDT
Nautical Twilight 6:28 AM CDT 8:16 PM CDT
Astronomical Twilight 5:54 AM CDT 8:50 PM CDT
Moon 2:41 PM CDT (3/11) 4:35 AM CDT (3/11)
Length of Visible Light 12h 39m
Length of Day
11h 41m
Waxing Gibbous, 78% of the Moon is Illuminated
Mar 11
Waxing Gibbous
Mar 16
Full
Mar 23
Last Quarter
Mar 30
New
Apr 7
First Quarter

Hourly Weather History & Observations

Time (CDT) Temp. Windchill Dew Point Humidity Pressure Visibility Wind Dir Wind Speed Gust Speed Precip Events Conditions
12:53 AM 39.0 °F - 32.0 °F 76% 29.72 in 10.0 mi Calm Calm - N/A   Overcast
1:53 AM 39.9 °F 36.7 °F 32.0 °F 73% 29.73 in 10.0 mi NNW 4.6 mph - 0.00 in   Overcast
2:53 AM 39.0 °F 32.8 °F 30.9 °F 73% 29.74 in 10.0 mi NW 9.2 mph - N/A   Overcast
3:53 AM 39.0 °F 34.0 °F 30.9 °F 73% 29.75 in 10.0 mi NW 6.9 mph - N/A   Overcast
4:53 AM 39.9 °F 37.8 °F 30.9 °F 70% 29.74 in 10.0 mi WNW 3.5 mph - N/A   Overcast
5:53 AM 39.0 °F 34.8 °F 30.9 °F 73% 29.76 in 10.0 mi WNW 5.8 mph - N/A   Overcast
6:53 AM 37.9 °F 33.5 °F 30.9 °F 76% 29.78 in 10.0 mi NNW 5.8 mph - N/A   Overcast
7:53 AM 37.9 °F 32.1 °F 30.0 °F 73% 29.81 in 10.0 mi NNW 8.1 mph - N/A   Overcast
8:53 AM 37.0 °F 31.6 °F 30.0 °F 76% 29.83 in 10.0 mi NW 6.9 mph - N/A   Overcast
9:53 AM 37.9 °F 30.9 °F 28.9 °F 70% 29.86 in 10.0 mi NNW 10.4 mph - N/A   Overcast
10:53 AM 39.0 °F 31.8 °F 26.1 °F 60% 29.88 in 10.0 mi North 11.5 mph - N/A   Mostly Cloudy
11:53 AM 39.9 °F 34.5 °F 25.0 °F 55% 29.90 in 10.0 mi North 8.1 mph - N/A   Partly Cloudy
12:53 PM 41.0 °F 34.7 °F 24.1 °F 51% 29.90 in 10.0 mi North 10.4 mph - N/A   Clear
1:53 PM 41.0 °F 34.3 °F 21.0 °F 45% 29.90 in 10.0 mi North 11.5 mph - N/A   Clear
2:53 PM 41.0 °F 33.1 °F 19.9 °F 43% 29.89 in 10.0 mi NW 15.0 mph - N/A   Clear
3:53 PM 41.0 °F 33.5 °F 21.0 °F 45% 29.89 in 10.0 mi NNW 13.8 mph - N/A   Clear
4:53 PM 42.1 °F 34.5 °F 19.9 °F 41% 29.90 in 10.0 mi NNW 15.0 mph - N/A   Clear
5:53 PM 39.0 °F 30.3 °F 24.1 °F 55% 29.92 in 10.0 mi NW 16.1 mph - N/A   Clear
6:53 PM 39.0 °F 29.3 °F 21.9 °F 50% 29.94 in 10.0 mi NW 19.6 mph 28.8 mph N/A   Clear
7:53 PM 37.0 °F 28.1 °F 21.0 °F 52% 29.99 in 10.0 mi NNW 15.0 mph 24.2 mph N/A   Clear
8:53 PM 35.1 °F 24.8 °F 19.0 °F 52% 30.01 in 10.0 mi NNW 17.3 mph - N/A   Clear
9:53 PM 34.0 °F 25.0 °F 18.0 °F 52% 30.02 in 10.0 mi NNW 12.7 mph - N/A   Clear
10:53 PM 33.1 °F 23.4 °F 17.1 °F 52% 30.03 in 10.0 mi NNW 13.8 mph - N/A   Clear
11:53 PM 30.9 °F 20.7 °F 17.1 °F 57% 30.03 in 10.0 mi NNW 13.8 mph - N/A   Clear